GEFSNE_500_meanwind_132.txt.gz
Wind_Speed
27 27 27 27 27 27 27 27 27 27 26 25 26 26 27 26 26 26 26 27 27 27 27 27 27 27 27 28 28 28 28 29 30 30 29 29 29 30
28 28 28 28 28 27 27 26 26 26 25 24 24 25 25 24 25 25 25 25 25 26 26 26 26 25 26 26 26 26 27 28 28 27 26 27 27 27
29 28 28 28 27 27 27 26 25 25 25 24 23 23 23 24 24 24 24 24 24 24 24 24 24 24 24 24 23 23 23 24 24 23 23 23 23 23
28 28 28 27 27 27 26 25 25 24 24 23 23 22 22 22 22 22 22 22 22 22 22 22 21 21 21 21 21 21 20 20 20 19 19 20 20 20
26 26 26 26 25 25 25 24 24 23 23 23 22 22 22 21 21 21 20 20 21 20 20 19 19 18 18 18 18 18 17 17 18 17 18 18 17 17
24 23 24 24 24 24 23 23 23 22 22 21 21 20 20 20 19 19 19 19 19 18 18 17 16 15 15 15 15 15 15 16 15 15 15 15 14 15
22 22 22 22 22 22 22 21 21 21 20 20 20 19 19 18 18 18 18 17 17 16 15 14 13 13 13 13 13 13 13 12 11 11 11 11 12 13
21 22 21 20 20 19 19 19 19 19 18 18 18 18 17 17 16 16 14 13 13 12 12 11 11 11 11 11 11 10 10 9 9 9 10 11 12 14
19 18 18 17 17 16 16 16 16 16 16 15 15 14 14 13 13 12 11 10 10 9 9 8 8 9 9 8 8 8 8 8 8 9 10 11 13 14
15 14 15 14 14 14 14 14 14 13 13 13 13 13 12 11 10 9 8 7 7 7 7 7 7 6 6 6 6 6 7 8 9 10 11 12 13 14
11 11 11 11 11 12 12 11 10 11 12 11 10 9 8 8 7 6 5 5 5 5 4 4 5 5 4 5 6 6 7 8 9 10 11 13 14 15
9 9 9 9 9 9 9 9 8 8 9 8 7 7 6 5 5 4 4 4 3 3 3 3 4 4 4 5 6 7 8 9 10 11 12 14 15 16
8 7 7 7 7 7 7 7 6 6 6 5 5 5 5 4 4 3 3 3 3 2 2 3 3 4 5 6 7 8 9 10 11 12 14 15 17 18
7 6 5 6 6 6 6 6 5 5 5 5 5 4 4 4 3 2 2 2 1 1 2 2 3 4 4 5 7 8 10 10 12 14 15 17 19 20
6 6 6 6 6 6 6 7 6 6 5 5 5 4 4 3 3 2 2 1 0 1 1 2 3 4 5 6 8 9 10 12 14 15 17 18 20 21
5 5 6 6 6 6 6 7 7 6 6 5 5 4 3 3 3 3 2 1 1 1 3 4 5 6 6 8 9 10 12 14 16 17 18 20 21 23
6 7 7 7 7 7 7 7 7 7 7 6 6 5 4 4 4 4 3 3 3 3 4 5 6 7 8 9 11 13 14 16 17 18 19 21 23 24
7 8 8 8 8 8 8 8 8 8 7 7 6 5 5 5 5 4 4 4 3 4 5 5 6 7 8 10 12 14 15 17 18 20 21 22 24 27
9 9 10 9 9 9 9 8 8 8 7 6 6 5 5 5 4 4 4 4 4 5 5 6 7 9 10 12 13 15 17 18 20 21 23 25 26 28
10 10 10 9 9 8 8 8 8 7 7 6 6 6 5 5 4 4 4 4 5 5 6 8 9 11 13 14 15 17 19 21 22 24 25 27 29 31
11 10 9 9 8 8 8 8 7 7 7 7 6 5 4 4 3 3 4 4 5 6 8 10 11 12 14 15 16 18 21 23 25 27 28 30 31 32
10 10 9 8 9 8 8 8 7 7 6 5 4 3 3 2 2 3 4 5 7 8 10 11 12 14 15 17 19 21 23 25 27 29 31 33 35 36
10 9 8 9 8 8 8 7 6 5 4 3 2 1 2 2 3 5 6 8 9 10 11 12 14 16 18 20 22 24 25 27 29 30 32 34 36 38

GEFSNE_500_meanwind_138.txt.gz
Wind_Speed
24 24 24 24 24 24 23 23 23 22 22 22 22 22 23 23 24 24 24 24 24 24 23 23 24 24 24 24 25 25 25 25 26 27 27 27 28 27
24 24 25 25 25 25 24 24 24 23 23 22 22 22 22 22 21 22 23 23 22 22 22 22 23 22 22 22 22 23 24 24 25 25 26 25 24 23
23 24 24 25 25 25 25 24 24 24 23 23 22 22 22 21 20 20 21 21 21 21 21 21 20 20 19 20 21 22 22 22 22 22 22 21 21 21
22 22 23 23 23 23 23 24 24 24 24 22 22 21 20 20 19 19 20 20 20 21 20 19 18 18 18 19 20 20 19 19 19 19 19 19 19 18
21 22 22 22 22 22 22 22 23 23 23 22 22 21 20 20 20 19 19 19 19 18 18 18 18 18 19 18 17 17 17 17 17 16 16 16 16 16
19 20 21 21 21 21 21 21 21 22 22 21 21 21 20 20 19 18 18 17 17 17 18 17 17 17 16 15 15 16 15 15 15 15 15 16 15 15
18 18 18 19 19 20 20 20 20 20 20 20 20 20 19 19 18 17 16 17 17 16 15 15 14 14 14 14 14 14 13 13 13 14 14 14 13 13
17 17 17 17 17 18 18 18 18 18 18 18 18 18 18 17 16 16 15 15 15 14 13 13 12 12 12 12 12 12 11 11 11 11 11 12 12 13
14 14 14 15 15 15 15 16 17 17 17 17 16 17 16 15 15 14 13 13 13 12 12 12 11 11 11 10 10 9 9 9 9 10 11 11 12 12
13 12 12 13 13 13 14 13 14 14 14 14 14 13 13 12 12 12 12 11 11 10 10 10 10 9 9 8 8 8 8 9 9 10 11 11 12 13
11 11 11 11 11 11 11 11 11 11 11 11 11 11 11 11 10 10 10 10 10 9 9 9 9 8 7 7 8 8 8 9 9 10 10 11 12 13
10 10 9 10 10 10 9 9 9 9 9 9 9 9 9 9 9 9 8 9 9 8 8 8 7 7 7 7 7 7 8 8 8 9 10 11 12 13
8 8 8 8 8 8 8 8 8 8 7 7 8 8 8 8 8 8 7 7 7 7 7 6 6 6 6 6 7 7 8 8 9 10 11 12 13 15
7 7 8 7 7 7 7 7 8 8 7 7 7 7 7 7 7 6 6 6 6 6 6 6 5 5 5 6 6 7 7 8 10 11 12 14 16 17
6 6 7 6 6 7 7 8 8 8 7 7 7 7 7 7 6 6 5 5 5 5 4 4 4 4 5 6 6 6 7 9 11 12 14 16 17 18
7 7 6 6 7 7 8 8 8 8 7 6 6 6 6 6 5 5 5 5 5 4 3 3 3 4 4 5 6 7 8 10 12 14 16 17 18 20
6 6 6 8 8 8 8 8 8 7 7 7 7 7 6 6 5 5 5 5 5 4 3 3 4 4 5 6 8 9 10 12 14 15 17 18 20 22
6 7 7 8 8 9 8 8 8 8 8 7 7 7 6 5 4 4 4 4 4 4 4 4 5 5 7 8 9 10 12 14 15 17 19 20 22 24
8 7 7 8 9 9 9 8 8 8 8 7 7 6 5 5 4 4 4 4 4 4 4 5 6 7 8 9 11 13 14 16 18 19 21 22 24 25
8 7 8 8 9 9 8 8 7 7 7 7 6 5 5 4 3 3 3 3 4 4 5 6 8 9 10 11 13 15 17 18 20 21 23 24 26 27
8 8 8 8 8 8 8 7 6 6 6 6 5 4 4 3 3 3 4 4 5 6 7 8 10 12 13 14 15 17 18 20 22 24 25 26 28 29
7 8 8 8 8 8 7 6 6 6 6 6 5 4 3 3 4 4 5 6 7 8 9 11 12 14 15 16 17 19 20 22 24 27 29 30 31 32
8 8 8 8 7 7 6 6 6 6 6 5 4 4 4 5 5 6 7 8 9 10 12 13 14 16 17 19 20 22 24 25 27 29 30 32 34 36

GEFSNE_500_meanwind_144.txt.gz
Wind_Speed
24 24 25 26 26 25 25 26 27 27 26 26 27 27 27 26 26 27 26 27 27 27 27 27 27 27 27 27 26 26 26 27 27 27 27 27 28 28
23 24 24 25 25 26 27 26 27 27 27 26 26 27 27 27 26 26 25 26 26 26 26 26 27 26 26 26 25 25 26 26 25 25 25 25 25 25
23 24 24 24 25 25 26 26 27 27 27 26 26 27 26 26 25 26 25 25 25 25 25 25 25 25 25 25 25 25 25 24 24 23 22 22 22 23
24 23 24 24 24 24 25 25 26 26 26 26 26 26 26 25 25 26 25 24 24 23 23 24 24 24 24 24 24 23 23 22 20 20 20 20 21 21
23 23 23 23 23 24 24 23 24 24 24 25 25 25 25 25 25 25 24 24 23 23 23 23 23 23 23 23 22 21 20 19 19 19 20 20 20 20
23 22 22 21 22 23 22 22 23 23 23 24 24 24 25 25 25 24 23 23 22 22 21 21 20 20 20 20 20 20 20 19 19 19 19 19 18 18
21 22 21 21 22 23 23 23 22 22 23 23 23 23 23 23 23 22 22 21 20 19 19 19 19 19 19 18 18 18 18 17 17 17 17 17 17 17
20 20 20 21 22 22 22 22 22 22 21 21 21 21 22 22 22 22 21 20 19 19 19 19 18 18 18 18 17 17 16 15 16 16 16 16 16 16
18 18 19 19 18 19 19 19 19 19 19 19 19 20 20 20 20 20 20 19 18 18 18 17 17 17 16 15 15 14 14 14 14 14 14 14 14 14
17 17 17 17 17 17 17 17 17 17 17 17 17 18 18 18 18 17 17 17 16 15 15 15 15 15 15 14 13 13 13 13 13 13 13 13 13 14
15 15 15 16 15 15 16 16 16 16 16 16 16 16 16 15 15 15 14 14 14 14 13 13 14 14 13 12 12 12 12 12 12 12 12 13 13 15
13 13 13 12 13 13 13 13 13 13 13 13 12 12 12 12 12 12 12 12 12 12 12 12 13 13 12 11 11 11 11 11 11 12 12 13 14 16
11 12 11 11 10 10 10 10 11 11 11 10 10 10 10 10 10 10 11 10 10 11 10 10 11 11 10 10 10 10 10 10 11 12 13 14 16 17
9 9 9 9 9 9 9 9 9 9 9 9 10 10 10 10 10 10 10 9 9 9 9 9 9 9 9 9 9 9 10 11 12 13 14 15 16 17
7 7 8 8 8 8 8 8 8 8 8 9 9 9 9 10 9 9 9 8 8 8 7 7 8 8 8 8 8 9 10 11 12 14 15 16 17 18
6 6 6 6 7 7 6 6 6 7 7 7 7 8 8 8 8 8 8 7 7 7 7 7 7 7 7 7 9 10 11 12 14 15 16 17 19 20
5 4 5 5 6 6 6 6 5 5 6 6 7 7 7 7 8 7 7 7 6 6 7 7 7 7 8 9 10 11 12 13 15 16 17 19 20 22
4 4 3 3 4 5 5 6 5 5 6 6 6 6 6 6 6 6 6 7 7 7 7 7 8 8 9 11 12 13 14 15 16 18 19 20 21 22
2 3 3 3 4 4 5 6 6 6 6 5 5 5 5 5 5 6 6 6 6 7 7 8 8 10 11 12 13 15 16 17 19 20 22 22 23 25
2 2 3 3 4 4 4 5 5 5 5 5 5 4 5 5 5 5 6 6 7 8 9 10 11 12 13 15 15 17 18 20 21 22 23 24 26 27
2 2 2 3 4 4 4 4 4 5 5 5 5 4 5 5 6 7 8 8 9 10 11 12 13 15 16 17 18 19 20 22 23 24 25 26 28 29
1 1 1 2 3 4 4 5 5 5 5 5 6 6 6 7 8 9 10 10 11 12 14 15 16 17 18 19 20 21 22 24 25 27 28 30 31 32
1 1 2 2 3 4 5 5 5 5 6 7 7 8 8 9 10 11 12 13 14 15 16 18 18 19 20 21 22 23 25 26 27 29 30 32 34 35

GEFSNE_500_meanwind_150.txt.gz
Wind_Speed
26 26 27 27 26 26 26 27 27 26 26 26 26 26 26 26 25 25 26 26 26 25 25 25 26 26 26 26 26 26 25 26 26 26 26 26 25 25
25 25 26 26 25 24 25 26 26 26 26 26 25 25 25 26 26 25 25 25 26 25 24 25 26 26 26 26 26 26 25 25 25 25 25 24 23 21
25 25 25 25 25 25 25 25 26 26 26 25 25 26 26 26 25 24 24 24 24 25 25 25 25 25 26 26 25 25 25 24 24 23 23 22 21 20
24 24 23 23 23 23 23 23 24 24 24 24 24 24 24 24 24 24 23 23 23 24 24 24 24 24 24 24 23 24 23 23 22 22 21 21 21 20
23 23 22 22 21 21 22 22 22 22 23 23 23 23 23 23 23 23 23 23 23 23 24 24 23 23 22 22 22 23 22 22 22 22 22 21 21 20
21 21 21 21 21 21 21 21 21 22 22 22 22 22 22 22 22 23 23 23 23 23 23 23 22 21 21 21 22 21 22 22 21 21 21 20 20 19
20 20 20 20 20 21 21 21 21 21 21 21 21 21 21 21 21 22 22 22 22 21 21 21 21 20 20 20 20 20 21 21 21 21 19 19 19 19
19 19 19 19 20 20 21 21 20 20 21 20 20 20 21 20 20 21 21 21 20 20 20 21 20 19 19 19 18 19 19 19 19 18 18 17 18 18
18 18 19 19 19 19 20 20 20 20 20 20 20 21 20 19 19 19 20 20 20 20 19 19 19 18 18 17 17 17 17 17 17 17 18 17 17 17
17 17 17 17 17 17 18 18 18 18 19 19 19 19 18 18 17 17 17 18 18 18 18 18 17 16 16 16 16 17 16 16 17 17 17 17 17 16
15 15 14 14 15 15 16 16 15 16 16 16 16 16 16 16 16 16 16 16 16 16 16 16 15 15 15 15 16 16 15 15 16 16 16 16 16 16
14 13 13 14 14 14 13 13 14 14 15 15 15 15 15 15 14 14 14 14 14 14 14 14 14 14 14 14 14 14 14 14 15 15 15 15 15 16
12 12 11 12 12 11 11 12 12 12 13 14 14 14 14 13 12 12 12 12 13 13 13 13 13 13 14 14 14 14 14 14 15 15 14 15 15 16
10 10 9 9 9 9 9 10 10 10 11 11 11 11 11 11 11 11 11 12 12 12 12 12 13 13 13 13 13 13 14 15 14 14 14 15 16 16
9 9 8 8 8 8 8 8 8 8 8 9 9 9 10 10 10 11 11 12 12 13 13 13 12 13 13 12 13 13 13 13 13 14 14 15 16 17
7 7 7 6 6 6 6 6 6 7 7 7 8 9 9 10 10 10 11 11 12 13 13 12 12 12 12 11 12 12 13 13 14 15 15 16 17 18
6 6 6 5 5 5 5 5 6 6 7 7 7 8 9 9 9 9 10 10 11 12 13 12 12 12 12 12 12 12 13 14 15 15 16 17 18 20
4 4 5 5 5 5 5 5 5 5 6 7 7 8 8 8 9 9 9 9 10 10 11 11 12 12 12 12 13 14 14 15 16 17 18 19 20 22
2 3 3 4 4 4 4 5 5 5 6 6 7 7 7 8 8 8 9 9 10 10 11 11 12 12 12 12 13 15 16 17 18 19 20 21 23 24
2 2 3 4 4 4 4 5 5 6 7 7 7 8 8 8 8 9 9 10 10 11 11 11 12 13 14 15 16 17 19 20 20 21 23 24 25 26
2 3 3 4 5 5 6 6 7 7 7 7 8 9 9 9 9 9 9 10 11 12 12 13 14 15 16 18 19 20 21 22 23 25 25 26 27 28
2 3 4 5 6 6 7 7 8 8 8 8 9 9 10 10 11 11 11 12 13 14 15 16 17 18 19 21 22 23 24 25 26 26 27 28 29 29
3 3 4 5 6 7 8 8 8 9 10 10 10 10 11 12 13 13 14 15 16 17 18 19 20 21 22 23 24 25 26 27 27 28 28 29 30 31

GEFSNE_500_meanwind_156.txt.gz
Wind_Speed
25 25 25 25 25 26 26 26 25 25 25 25 25 25 25 24 23 23 23 23 23 23 23 23 23 23 23 23 23 24 24 24 24 24 24 24 23 23
24 24 23 23 23 24 24 24 25 24 24 25 25 24 24 23 23 23 22 23 22 22 23 23 23 23 23 23 23 23 24 24 23 24 23 23 23 22
24 23 23 22 23 23 24 24 24 24 24 23 24 24 24 23 23 23 22 23 23 22 23 23 23 22 23 23 23 23 23 23 23 23 23 23 22 21
24 23 22 22 23 22 23 23 23 24 23 23 23 24 24 23 23 23 23 23 23 23 23 23 23 23 23 23 23 22 23 23 23 22 22 22 22 22
23 23 22 22 22 22 22 22 22 23 23 23 22 23 24 23 23 23 23 23 23 23 23 23 24 24 23 23 23 23 22 23 23 23 22 22 22 22
22 22 21 21 21 21 21 21 21 21 22 22 22 22 23 23 23 23 23 22 23 23 23 23 23 23 22 22 23 23 24 23 22 22 21 21 21 21
21 21 21 21 22 22 21 21 20 20 21 21 21 21 22 22 22 22 21 21 21 21 21 21 21 21 22 22 22 23 23 22 22 22 21 21 21 20
20 21 21 21 21 21 21 21 21 20 21 21 21 21 20 20 21 20 20 20 19 19 19 19 20 20 20 21 21 21 21 21 20 20 20 20 20 20
20 20 20 20 20 20 20 19 19 19 20 20 20 19 20 20 20 20 20 20 19 18 18 18 18 19 19 20 20 19 19 19 19 19 20 20 20 20
20 19 19 19 19 19 19 18 18 19 20 20 20 19 19 19 19 19 18 18 17 17 17 17 17 17 17 18 18 19 19 19 19 19 19 19 19 19
18 18 17 17 17 17 17 18 18 18 19 19 19 19 19 19 18 18 18 18 17 16 16 16 16 17 17 17 18 18 19 18 18 18 18 19 19 19
16 16 16 15 15 14 14 15 16 17 17 17 18 18 18 17 17 17 17 17 16 16 16 15 16 16 16 16 16 17 17 17 17 17 17 18 18 18
14 14 14 13 12 13 13 13 13 14 15 15 16 16 16 16 16 16 16 16 16 15 15 15 14 14 14 15 15 15 16 16 16 17 17 18 18 18
12 11 11 11 11 11 11 11 11 11 12 12 13 13 13 14 14 14 15 15 15 14 14 14 14 13 13 14 15 15 16 16 17 17 18 18 18 19
10 10 9 9 9 10 9 9 10 10 10 10 11 11 11 12 12 12 13 13 13 13 13 13 13 13 13 14 15 16 17 17 18 18 18 18 18 18
9 8 8 7 8 8 8 8 8 9 9 9 9 10 10 10 11 11 11 12 12 12 13 13 13 13 13 14 15 16 16 17 17 17 17 17 17 18
6 7 7 7 7 6 7 7 7 7 7 8 9 10 10 10 10 11 11 11 11 12 12 13 13 14 14 15 16 16 17 18 18 17 18 18 19 19
7 6 7 6 6 6 6 7 7 7 7 7 8 9 9 10 10 11 11 12 12 13 13 14 14 15 15 16 17 17 18 18 18 18 18 19 20 20
7 7 7 6 5 5 5 6 6 7 7 7 8 8 9 10 10 11 11 12 13 14 14 14 15 15 16 17 17 18 18 18 19 19 20 21 21 22
7 7 7 6 5 5 5 6 7 7 8 8 8 9 9 10 11 12 12 13 14 15 15 16 15 16 16 17 18 18 18 19 20 21 22 23 23 24
7 7 8 7 6 6 6 6 7 8 9 9 10 10 11 12 13 14 15 15 16 16 17 17 18 18 18 19 18 19 20 21 23 24 25 25 26 26
8 9 9 8 8 8 9 9 10 10 11 11 12 12 12 13 14 15 16 16 17 18 18 19 19 20 20 21 22 23 23 24 25 26 27 28 29 29
9 9 9 9 9 10 10 11 12 12 12 12 13 13 14 15 15 16 17 18 19 19 20 21 22 23 24 25 25 26 26 27 28 28 28 29 30 30

GEFSNE_500_meanwind_162.txt.gz
Wind_Speed
24 25 24 25 25 26 26 25 25 25 25 25 25 25 26 26 25 25 25 25 25 26 26 26 26 26 26 26 26 26 26 26 26 26 27 27 27 26
22 23 23 23 24 24 24 24 24 24 24 24 24 25 25 25 25 25 24 24 25 25 25 26 26 26 26 26 26 26 26 26 26 26 27 28 28 26
22 22 23 23 22 23 23 23 23 24 23 23 24 24 25 25 25 25 25 25 25 25 26 26 25 25 25 25 25 26 26 26 26 26 26 26 25 25
22 22 22 22 22 22 22 22 23 23 23 23 23 25 25 25 25 25 25 26 26 26 26 26 25 25 25 25 25 26 26 26 26 25 25 25 25 26
22 22 22 21 21 21 22 22 23 23 23 23 23 24 25 25 25 25 25 26 25 25 25 25 25 25 25 26 25 26 26 26 25 26 26 26 26 27
21 22 22 21 21 21 22 22 22 23 23 23 23 24 25 25 25 25 25 25 25 25 25 26 25 25 25 25 25 26 26 26 26 26 26 26 26 26
20 20 21 21 22 22 22 22 22 22 22 22 23 23 24 25 25 25 25 25 25 25 25 26 26 25 25 25 25 26 26 26 26 26 25 25 26 26
19 20 20 21 22 22 22 22 22 23 22 21 21 22 23 24 24 25 25 25 25 26 26 26 25 25 25 24 25 26 26 27 26 26 25 25 25 26
18 19 19 19 20 20 20 21 21 22 22 22 21 21 22 23 24 25 25 25 25 25 25 24 24 24 24 23 24 25 26 26 26 26 26 26 26 26
16 16 16 16 16 17 18 19 20 20 21 22 22 21 21 22 22 23 23 23 23 22 22 22 23 23 23 23 23 24 25 26 27 26 26 26 26 25
15 15 15 15 15 16 17 18 18 19 20 21 21 22 22 21 21 21 22 21 21 21 21 21 21 22 22 23 23 23 23 25 26 26 26 25 25 25
15 15 14 14 15 15 16 16 17 17 17 18 19 19 20 20 19 19 20 20 20 21 21 21 21 22 22 23 23 23 22 23 23 24 24 24 25 25
13 13 13 13 14 14 14 14 15 15 16 15 16 17 18 18 19 19 20 20 20 20 21 21 22 22 22 22 22 22 22 22 21 21 22 23 23 24
11 12 12 12 12 12 12 12 12 13 14 14 14 15 16 17 18 18 19 18 19 19 19 20 21 21 21 21 21 21 21 22 21 21 21 22 23 24
11 10 11 10 10 10 10 10 11 12 12 13 13 13 15 16 16 17 17 17 17 18 19 19 20 20 20 20 20 20 21 21 21 21 22 23 23 24
11 11 10 10 10 10 10 10 10 11 11 12 13 13 14 14 15 15 16 16 17 17 18 19 20 20 20 20 21 21 21 21 22 22 22 23 24 24
11 11 11 10 10 10 10 10 9 9 10 11 12 13 13 13 14 15 15 16 16 17 18 18 19 20 20 21 22 22 22 22 23 23 23 23 24 25
11 11 11 10 9 9 9 9 9 9 9 10 11 12 13 13 14 14 14 15 15 16 17 18 19 20 21 21 21 22 22 23 23 24 24 24 24 25
11 11 10 10 10 9 9 9 9 9 9 10 11 12 12 13 14 15 15 16 16 16 17 18 18 19 20 21 22 23 23 23 24 25 25 26 26 26
12 12 11 11 10 10 10 9 10 10 10 11 11 12 12 13 14 15 16 17 17 17 18 19 20 20 21 21 22 23 25 25 26 26 27 27 27 27
13 12 12 12 11 11 11 11 11 11 12 12 12 13 13 14 14 15 16 17 18 18 19 20 21 22 22 22 23 24 26 26 27 27 28 28 28 28
13 13 13 13 14 13 13 13 13 12 13 13 14 14 14 15 16 17 18 19 19 20 21 22 23 23 24 24 25 26 27 27 28 28 28 29 29 29
15 14 14 15 15 15 15 14 14 14 14 15 15 16 16 17 17 19 20 20 21 22 22 23 24 24 25 26 27 28 28 29 29 29 29 30 30 31

GEFSNE_500_meanwind_168.txt.gz
Wind_Speed
25 25 26 26 26 27 27 27 28 28 28 29 29 29 29 30 30 30 30 31 30 29 29 30 30 30 29 30 30 30 29 29 30 31 30 29 29 29
24 24 24 25 25 26 26 26 26 26 27 28 29 29 29 29 30 30 30 30 29 29 29 28 29 29 30 30 30 30 30 30 30 30 30 30 29 29
23 24 24 24 25 25 25 25 25 25 25 26 27 28 28 29 30 31 31 31 31 31 30 30 30 30 30 31 31 30 30 30 30 30 30 29 29 30
22 21 22 23 24 24 25 25 25 25 25 25 25 26 27 28 29 31 31 31 31 30 30 30 30 30 30 31 31 31 30 30 30 30 29 29 29 29
20 20 20 21 22 22 23 24 24 25 25 26 25 26 26 28 28 30 30 30 30 30 31 31 30 30 30 31 31 31 31 31 30 29 30 30 30 29
19 19 20 21 21 21 22 23 23 23 24 26 26 26 27 27 28 29 29 30 29 30 30 30 29 30 31 31 32 32 31 31 31 31 30 30 30 30
19 19 20 20 20 20 21 22 22 23 24 25 25 25 26 27 27 28 28 29 29 29 30 30 29 30 30 31 31 31 31 30 30 30 30 30 30 30
18 19 19 20 20 21 21 22 23 24 25 25 26 26 26 26 27 28 29 29 29 30 30 31 31 30 30 30 31 31 31 30 30 30 30 31 31 30
18 19 19 20 20 20 21 22 23 23 24 24 25 25 25 24 25 26 27 28 28 29 30 30 30 30 30 30 31 31 31 30 30 30 30 30 30 30
18 18 19 19 20 20 20 20 21 21 22 22 23 23 23 23 24 25 26 26 27 28 28 28 28 29 29 28 29 30 30 29 30 30 30 30 30 30
17 17 18 18 19 19 19 20 20 20 20 21 21 21 22 22 23 24 25 25 24 25 26 26 26 26 26 27 28 29 29 29 29 30 29 29 29 29
15 15 16 16 16 17 18 18 18 18 18 18 19 20 20 21 22 23 23 23 24 24 24 24 24 25 26 26 26 27 28 28 29 29 29 30 29 29
14 15 15 15 15 15 15 15 15 16 16 17 18 18 19 19 20 21 21 22 22 23 23 24 24 24 24 25 25 26 27 28 29 28 29 29 29 28
14 14 14 14 14 14 14 14 15 15 15 15 16 16 17 17 17 18 19 20 21 22 23 23 23 23 23 23 24 26 26 27 27 27 27 27 27 27
13 13 13 14 14 14 14 14 14 14 15 15 15 15 15 16 16 17 18 19 19 19 20 21 21 22 22 22 22 23 24 25 26 26 26 26 27 27
13 13 13 13 14 14 14 15 15 14 15 15 14 14 14 14 15 15 16 17 18 18 19 20 21 21 22 22 21 22 23 24 25 26 26 26 26 27
14 14 13 13 13 14 14 14 14 14 13 13 13 13 14 14 14 14 15 16 16 17 18 20 20 21 21 21 21 21 22 23 24 25 26 26 26 27
14 14 13 13 14 15 14 14 14 14 13 13 13 14 14 14 14 15 15 17 18 18 19 19 20 21 22 22 21 21 22 23 24 26 26 27 27 28
15 15 15 14 15 15 15 15 15 15 14 14 14 14 14 15 15 15 15 16 17 18 19 20 21 21 22 21 21 22 23 24 26 27 28 28 29 30
16 16 16 16 16 16 16 16 16 16 16 15 16 16 15 15 16 16 16 17 17 18 19 20 21 21 21 22 23 24 25 26 27 28 29 30 30 31
17 17 17 16 16 16 16 17 17 17 17 17 17 17 17 17 16 17 18 18 19 19 20 21 22 23 23 24 24 25 26 27 28 28 29 30 31 31
18 18 17 17 17 17 17 18 18 19 19 18 17 17 17 18 18 18 18 19 19 20 21 22 23 24 24 25 25 25 26 28 29 30 30 31 31 30
19 19 19 19 18 18 18 19 19 19 19 19 19 18 18 19 19 19 20 19 20 21 22 22 22 23 25 26 26 26 27 28 30 30 30 31 31 30

GEFSNE_500_meanwind_174.txt.gz
Wind_Speed
25 25 24 24 24 24 25 25 25 26 27 28 28 29 29 30 30 30 31 31 31 31 31 31 32 32 32 32 32 33 33 33 32 32 32 33 32 32
23 23 23 22 21 22 23 23 24 24 26 27 28 28 28 29 30 31 31 32 32 31 31 31 32 32 32 32 32 32 33 33 33 32 32 32 33 33
21 22 22 23 22 22 23 23 24 25 25 26 27 28 28 29 30 30 31 32 32 32 32 32 33 33 33 33 33 32 32 32 32 32 32 32 32 33
19 20 20 22 22 22 23 23 24 25 25 25 25 27 27 28 29 30 30 31 32 32 32 33 33 34 33 34 34 33 33 33 32 32 33 33 33 32
18 18 19 20 20 20 21 22 23 24 24 24 24 25 26 27 28 29 29 30 31 32 32 32 33 34 34 34 34 34 34 33 33 33 33 34 34 33
17 18 18 18 19 19 19 20 21 22 23 23 24 24 25 25 26 28 28 29 29 30 32 32 33 33 34 34 34 34 34 34 34 34 34 34 34 34
17 18 18 18 18 19 20 20 22 23 23 24 24 24 25 26 27 28 29 29 29 29 30 31 32 32 33 34 34 34 35 35 36 35 35 35 34 34
17 18 18 19 19 19 20 21 22 22 22 23 24 25 26 27 27 28 29 29 30 31 31 31 31 32 33 34 35 35 35 35 36 35 35 34 34 34
17 17 18 18 18 18 18 19 20 20 21 22 23 24 25 26 26 27 28 28 30 31 32 31 31 31 32 33 34 34 34 34 34 34 34 34 34 34
16 17 17 17 16 17 18 18 19 18 19 20 21 22 24 25 25 26 26 27 28 28 28 29 29 30 32 32 33 33 33 33 33 33 33 34 34 34
15 15 15 15 15 15 16 16 16 17 17 18 19 20 21 22 22 23 24 25 25 26 28 28 28 29 30 31 32 32 32 32 32 32 33 33 33 33
15 15 15 15 14 14 14 15 15 16 16 16 17 18 19 19 20 21 22 23 24 25 26 27 28 28 28 29 30 30 31 31 32 32 33 33 33 33
14 15 14 14 13 13 13 14 14 15 15 15 16 17 18 18 19 20 21 22 24 24 25 26 26 27 27 27 28 28 28 29 30 31 32 32 33 32
14 14 14 14 13 14 14 14 14 14 15 15 16 16 16 17 18 19 20 21 22 22 22 23 23 24 26 26 26 27 27 28 28 29 30 31 32 32
14 14 14 13 13 13 14 14 14 15 15 16 16 16 17 17 18 19 19 20 20 21 21 22 22 23 24 25 26 26 26 26 27 28 28 29 30 31
15 14 14 13 13 14 14 14 15 15 16 16 16 17 17 17 18 18 18 19 19 20 20 21 21 22 23 24 25 26 26 26 26 26 27 28 29 30
15 14 13 13 14 14 14 15 15 16 16 16 16 16 17 17 18 18 18 18 19 19 19 19 20 21 22 23 23 24 25 25 26 27 27 27 28 29
15 15 15 15 15 15 15 15 15 16 16 17 17 18 18 19 19 19 18 18 19 19 19 20 21 21 22 23 23 24 25 26 26 26 27 27 28 29
15 15 15 16 15 16 16 16 17 17 17 18 18 18 18 19 19 19 19 19 20 20 20 21 22 23 23 23 24 25 26 26 26 27 27 28 28 29
15 16 16 17 17 17 17 18 18 18 18 17 17 18 18 19 19 19 19 19 20 20 21 21 21 22 22 24 25 26 27 28 28 28 29 29 29 30
17 17 17 18 18 18 18 18 18 19 18 18 18 18 19 19 19 19 19 19 20 20 21 21 22 22 23 24 26 26 27 28 29 30 30 30 30 31
18 18 18 18 18 19 19 19 19 19 20 19 19 19 19 19 19 19 19 19 20 20 20 21 22 22 22 24 25 26 27 28 29 30 31 32 32 32
19 19 19 19 19 19 20 20 20 20 20 19 19 19 19 19 20 20 19 19 19 19 20 21 22 23 23 24 25 26 27 28 29 29 31 31 31 32

GEFSNE_500_meanwind_180.txt.gz
Wind_Speed
23 24 24 25 25 25 25 26 26 25 24 23 24 25 26 26 27 28 29 29 29 30 30 30 30 31 31 32 32 32 32 33 33 33 33 34 34 34
22 22 23 23 23 24 24 25 26 25 24 24 25 25 25 26 27 29 29 30 30 29 30 30 31 31 31 32 32 33 33 33 34 34 34 35 35 35
20 21 21 22 22 23 24 24 25 25 25 24 25 27 26 26 27 28 29 29 30 30 30 30 30 31 31 32 33 34 34 34 34 34 34 34 34 35
19 20 20 21 21 22 22 24 25 24 24 25 26 27 27 27 27 27 28 29 29 29 30 30 30 31 32 33 34 34 34 35 35 35 35 35 35 35
18 18 19 20 22 22 22 23 23 23 23 23 24 25 25 26 26 26 26 27 28 29 29 30 31 32 33 34 34 34 35 35 36 36 37 36 36 36
16 17 19 20 21 21 22 22 23 23 24 24 24 24 25 26 26 26 26 27 27 29 30 30 31 32 33 34 35 35 35 35 35 36 37 36 36 35
16 17 18 19 20 20 21 22 23 23 24 23 23 24 24 25 25 26 27 27 28 28 28 29 30 31 32 32 33 34 35 35 35 35 36 36 36 35
18 18 19 19 19 20 20 21 21 22 23 24 24 24 24 24 24 25 26 26 27 28 28 29 30 30 31 32 33 33 33 35 36 36 36 36 36 36
19 20 20 19 19 20 21 21 21 21 22 23 23 23 23 24 24 24 25 25 26 27 28 28 29 30 31 32 32 32 32 33 34 34 35 34 34 34
19 19 20 20 21 21 21 21 20 20 20 20 20 21 22 23 23 23 23 25 25 26 27 28 29 29 30 30 31 31 31 31 32 33 33 33 34 34
19 19 19 20 19 19 19 18 18 18 18 18 19 19 20 21 21 22 22 24 24 25 26 26 26 27 27 28 29 31 31 32 32 33 33 33 34 34
19 19 19 19 18 18 17 17 16 16 16 16 18 19 20 20 21 22 22 23 23 23 24 25 26 26 26 27 28 29 30 31 31 32 33 33 33 33
18 18 18 18 18 17 17 16 16 16 16 17 17 18 19 19 20 21 22 22 23 23 23 24 25 25 25 25 26 27 28 29 30 31 32 32 33 33
17 18 18 18 18 17 17 16 15 15 16 16 17 18 19 19 19 20 20 21 22 22 23 23 23 24 24 25 26 26 27 27 28 29 30 31 31 32
17 17 17 18 17 17 16 16 16 16 17 17 18 19 19 19 19 20 20 20 21 22 22 23 23 24 24 25 26 27 27 27 27 28 28 29 29 30
17 18 18 18 18 17 17 17 17 18 18 18 18 19 19 19 19 20 20 21 21 21 22 22 23 24 25 25 26 26 26 26 27 28 27 28 28 28
18 18 18 18 18 18 18 18 18 18 18 18 19 19 19 19 20 20 20 21 21 21 22 23 24 24 25 26 26 26 26 27 27 27 27 28 28 28
18 19 18 18 18 18 18 18 18 19 19 18 18 18 19 19 19 20 20 21 22 22 23 24 24 25 25 25 25 26 26 27 27 26 27 28 29 29
20 20 20 19 18 19 19 19 19 20 19 20 19 19 19 19 20 20 21 22 22 23 24 24 24 24 24 24 24 25 26 27 27 26 27 28 28 29
20 21 21 21 21 20 20 20 20 21 21 21 21 20 20 20 21 22 22 22 22 23 23 24 24 24 24 24 24 25 26 27 27 28 28 29 29 30
21 21 22 21 21 21 22 22 22 22 22 22 22 22 22 22 22 22 23 23 23 23 23 23 24 24 24 25 25 25 26 27 27 28 29 30 30 31
21 22 22 22 22 22 22 23 23 23 23 23 23 23 24 24 23 23 24 24 24 24 23 23 24 24 25 25 25 25 26 27 28 28 28 29 31 31
22 22 22 22 22 22 22 22 23 23 23 23 23 23 24 25 25 24 24 24 24 24 24 24 24 25 25 24 24 24 25 26 27 27 27 27 28 30

GEFSNE_500_meanwind_186.txt.gz
Wind_Speed
20 20 21 21 21 22 23 23 24 24 24 26 26 27 27 27 28 29 29 30 31 33 33 33 34 35 35 34 35 36 36 36 37 37 37 38 37 37
20 20 21 21 21 22 23 23 23 24 25 26 26 27 28 28 28 28 30 31 32 33 34 34 34 35 35 35 36 36 37 37 38 38 38 38 37 38
20 21 21 21 22 22 23 23 24 25 26 26 27 27 28 29 30 29 29 30 31 32 34 34 35 35 35 35 36 36 37 37 38 38 39 38 38 38
20 20 21 21 22 22 22 22 23 24 25 25 26 26 27 28 29 29 30 30 30 30 32 33 34 34 34 35 36 36 37 37 38 38 39 39 39 39
19 19 20 19 20 21 21 22 23 24 24 25 25 25 26 28 28 29 29 30 30 30 31 32 32 33 33 34 35 36 36 37 38 38 39 39 40 40
18 19 19 18 19 20 21 21 22 23 24 24 24 24 25 26 27 28 29 29 29 30 30 31 31 32 32 34 35 36 36 36 37 38 38 39 39 40
17 18 19 18 18 18 19 20 21 22 23 23 24 24 24 24 25 27 28 28 28 29 30 31 31 31 32 33 34 35 36 36 36 36 37 38 39 40
16 17 17 17 18 18 18 19 19 21 22 23 23 24 24 25 25 25 26 27 27 28 28 29 29 30 31 33 35 35 35 36 36 36 36 37 38 39
17 17 17 17 17 17 18 19 20 20 21 22 22 23 24 24 24 24 25 26 26 27 28 28 29 30 31 32 33 34 35 36 36 36 35 36 37 38
18 18 18 18 18 18 19 19 19 19 20 20 20 21 22 23 23 23 23 24 25 26 27 28 29 30 31 32 32 33 34 35 36 36 36 37 37 37
18 18 18 18 18 18 18 19 18 18 18 19 19 20 20 22 23 23 23 24 24 26 27 27 28 29 30 31 32 33 34 34 35 36 37 37 37 37
17 17 17 17 18 18 18 17 17 17 18 18 18 18 19 20 21 22 23 23 24 24 26 26 26 27 28 30 31 31 32 32 34 35 36 37 37 37
16 16 17 17 18 18 17 16 16 16 16 16 16 16 17 18 20 21 22 22 23 23 24 25 26 27 27 28 29 30 30 30 31 33 34 35 35 36
17 17 17 17 17 17 16 16 15 15 15 16 16 17 17 18 19 20 21 21 22 23 24 25 25 26 26 27 27 28 28 28 30 31 32 33 34 35
17 17 18 17 17 17 17 16 16 16 15 16 17 17 18 18 19 20 20 20 21 21 23 24 25 26 26 26 27 28 28 29 29 31 32 33 34 35
17 17 18 17 18 17 17 16 16 17 17 17 17 18 18 19 19 20 20 21 22 22 23 24 24 26 27 27 28 28 29 30 30 31 32 32 33 35
18 17 18 18 18 17 17 17 17 17 17 17 18 18 18 19 19 19 20 21 22 23 24 25 26 26 26 27 28 29 30 30 31 32 32 33 34 35
18 18 18 18 18 18 17 17 17 18 18 18 18 18 19 19 19 19 19 20 21 22 23 24 25 26 27 27 28 29 30 31 32 32 33 33 33 34
18 18 19 19 19 19 19 18 18 19 19 19 19 19 19 20 20 20 20 20 22 22 23 24 25 26 27 27 28 29 30 30 31 32 33 33 33 33
19 19 20 20 20 20 19 19 20 20 20 21 20 20 20 21 21 21 21 22 22 23 24 24 25 26 26 26 27 28 29 30 30 31 31 32 32 33
20 21 22 22 21 21 20 20 20 21 21 21 21 21 21 21 21 22 22 22 22 23 24 25 25 25 25 26 26 27 29 30 30 30 31 31 31 31
21 22 23 23 22 22 21 21 21 21 22 22 21 21 21 22 22 22 22 22 22 23 24 24 25 25 26 26 26 27 27 28 29 30 30 31 31 32
21 23 23 23 23 22 22 21 22 22 22 22 21 21 21 22 22 22 21 21 22 23 24 24 25 26 25 26 26 26 26 27 28 28 28 28 29 30

GEFSNE_500_meanwind_192.txt.gz
Wind_Speed
25 26 26 25 26 25 25 26 27 27 27 28 30 31 31 32 33 33 34 34 33 33 34 35 36 36 37 37 37 38 38 38 38 39 39 39 39 39
24 25 25 25 25 25 25 25 26 26 28 29 29 30 31 32 33 33 34 33 33 33 34 35 36 36 37 37 38 38 39 39 39 39 40 40 40 40
22 22 23 24 24 24 24 24 25 26 28 29 30 30 31 31 32 32 33 34 34 34 34 34 34 34 35 36 37 38 39 40 40 40 41 41 41 41
21 22 22 23 23 23 24 24 25 26 27 27 29 30 30 30 31 32 32 33 33 34 34 34 34 34 34 35 36 37 39 40 41 41 42 42 42 42
22 22 21 22 22 22 23 23 23 24 25 25 26 27 28 29 29 30 31 32 32 33 34 34 34 34 35 35 35 37 38 40 41 42 43 43 43 43
22 21 20 21 21 22 22 22 22 22 23 23 24 25 26 26 27 29 30 31 31 32 33 33 34 34 35 37 37 38 38 39 40 41 43 44 44 43
20 20 19 20 20 21 22 22 22 22 22 22 23 23 24 25 25 27 28 29 30 30 31 32 33 34 34 35 35 37 38 38 39 40 41 42 42 42
18 17 18 19 20 21 21 22 22 21 20 20 21 22 23 23 24 26 27 28 28 29 29 31 32 33 33 34 35 35 36 37 38 39 40 41 41 40
17 17 18 19 20 20 20 21 21 21 20 20 20 20 20 21 22 24 26 27 27 27 28 29 30 31 32 33 34 34 35 36 37 38 39 39 40 40
17 18 19 20 20 20 21 21 20 20 20 19 19 20 20 20 21 23 24 25 27 27 27 28 30 30 30 31 33 33 34 35 36 36 37 37 38 39
18 19 19 19 19 20 20 19 19 19 20 19 19 20 20 21 21 22 23 24 25 26 27 27 27 29 29 30 30 31 33 34 35 35 36 37 38 38
18 19 19 19 19 19 19 18 18 18 19 19 19 19 20 21 21 22 23 24 24 24 25 25 26 27 29 30 30 32 33 34 35 36 36 37 38 39
19 19 19 19 19 18 17 17 17 17 18 18 18 18 19 20 21 21 21 21 21 22 24 25 25 26 27 28 29 30 32 33 33 34 35 37 38 38
19 20 20 19 19 18 18 17 17 17 17 17 17 18 18 18 19 19 20 20 20 21 22 23 24 25 25 26 27 29 30 31 31 32 33 34 35 36
18 19 19 19 19 18 18 17 17 17 17 16 17 18 18 19 19 19 19 19 20 20 20 22 23 24 24 25 26 27 28 29 30 31 32 34 35 35
18 18 19 19 19 19 19 19 18 18 18 17 18 18 19 19 19 19 19 19 19 20 21 22 23 24 24 25 26 27 28 29 30 31 31 31 32 34
17 18 18 19 19 19 19 19 19 19 18 18 18 18 18 18 19 19 20 20 20 20 21 22 23 23 24 25 26 27 28 29 30 31 31 31 31 32
17 18 18 19 19 20 20 19 19 19 19 19 19 19 19 18 19 20 20 20 20 21 21 22 23 24 25 26 26 27 27 28 29 30 31 31 32 33
18 18 18 19 20 21 20 20 20 20 20 20 19 19 19 19 19 20 20 20 21 21 22 23 23 24 24 25 26 27 27 27 28 28 30 31 31 32
18 19 19 20 20 21 21 21 21 21 21 20 20 19 19 20 20 20 20 21 21 22 22 22 23 23 23 24 24 25 27 27 28 29 29 30 30 31
19 19 19 19 20 21 22 22 22 22 22 21 21 20 20 20 20 20 21 21 22 22 22 22 22 23 23 23 24 24 25 27 27 28 29 29 30 31
18 19 20 20 21 22 22 22 22 23 23 22 22 21 21 21 21 21 20 21 22 22 22 21 21 22 23 23 23 24 25 26 26 27 27 28 29 30
19 20 21 21 22 22 22 22 23 23 24 23 23 22 21 21 21 21 21 21 21 22 22 22 21 21 22 22 22 23 24 24 25 26 26 27 28 29

GEFSNE_500_meanwind_198.txt.gz
Wind_Speed
23 23 23 23 24 25 25 26 28 28 29 30 31 31 32 32 33 34 34 35 36 36 36 38 38 38 38 38 38 38 38 37 38 39 40 40 40 41
23 23 23 23 24 24 25 27 28 28 28 29 29 30 32 33 33 34 35 36 36 37 37 37 38 38 38 37 37 37 38 38 38 39 40 40 40 41
23 23 24 24 24 24 25 26 27 28 28 28 29 30 30 30 30 32 33 34 35 36 37 37 38 38 38 38 37 38 39 40 40 40 41 41 41 42
23 24 24 24 23 23 24 26 27 28 28 27 27 28 29 28 28 29 31 32 32 34 35 36 36 37 37 37 38 39 39 40 41 41 41 41 42 43
23 24 24 23 23 23 24 25 26 27 27 27 26 26 26 27 27 28 29 30 31 32 34 35 35 36 37 37 38 39 39 40 41 42 42 42 43 43
21 22 23 23 23 24 24 24 25 25 25 24 24 25 26 27 28 28 28 29 30 31 31 32 34 36 37 37 38 39 39 40 41 41 42 43 43 44
19 20 21 21 22 23 22 22 23 23 23 24 24 25 25 26 28 28 28 28 29 30 30 31 33 35 36 36 37 38 39 39 39 40 41 42 42 43
18 18 19 19 20 21 21 21 22 22 22 22 23 24 24 24 25 26 27 28 29 29 30 31 32 33 34 35 36 36 38 39 40 41 41 42 42 42
17 18 19 19 19 19 19 20 20 20 20 21 21 21 22 21 21 23 25 26 27 27 28 29 31 32 34 35 36 37 37 37 38 39 40 41 42 43
18 18 19 19 18 18 18 18 18 18 18 18 18 19 19 19 20 20 22 22 23 25 26 27 29 30 32 34 35 35 36 36 36 37 38 39 41 42
17 17 17 17 17 17 17 17 17 16 16 17 17 17 17 18 19 19 20 21 21 23 25 26 28 29 30 32 32 33 34 34 35 37 38 38 39 41
16 16 16 16 16 16 16 16 16 16 16 16 16 16 17 18 19 20 21 22 22 23 24 26 27 28 29 29 30 30 31 33 34 36 37 38 39 40
15 16 15 15 16 16 16 16 16 16 15 15 16 16 17 18 19 20 21 22 22 23 24 25 25 26 26 26 27 28 29 30 32 34 36 37 38 39
14 14 15 16 16 16 16 16 15 15 15 15 16 16 17 18 18 19 19 19 20 22 23 24 24 24 25 26 26 26 28 29 30 31 33 35 36 37
13 14 15 16 16 16 16 16 16 16 16 15 15 15 16 17 17 17 18 19 19 20 21 22 23 23 23 24 25 26 26 28 29 30 31 33 34 35
13 14 15 16 16 16 17 17 17 17 16 16 16 16 16 17 17 18 19 19 20 20 21 21 21 21 22 22 23 24 24 26 27 28 29 30 32 34
14 15 15 16 16 16 17 17 18 18 18 17 17 16 16 17 17 18 19 20 21 21 21 21 21 20 21 21 22 22 23 24 25 25 27 29 30 31
14 15 15 16 16 16 17 18 18 18 18 18 17 17 17 17 18 18 18 19 20 20 19 20 20 20 20 21 21 22 23 24 25 26 26 27 29 30
14 15 15 16 16 17 17 17 18 18 18 18 18 17 18 18 18 17 17 18 19 19 19 19 20 20 20 21 21 22 23 24 24 25 26 27 28 30
15 16 16 17 17 17 16 17 18 18 18 18 19 18 18 18 18 18 18 19 18 19 19 20 20 20 20 21 21 21 22 23 23 24 25 27 28 29
16 16 17 17 16 16 16 17 18 18 19 19 19 19 19 18 18 18 18 19 19 19 19 20 20 20 20 20 21 21 21 22 23 23 24 25 26 27
16 16 17 16 16 16 16 17 18 18 19 19 19 19 19 19 19 19 19 19 19 19 18 19 19 20 20 20 20 21 21 21 21 21 22 23 24 26
16 16 17 17 17 16 17 17 18 19 19 19 19 19 19 19 19 19 19 19 19 19 18 18 19 19 19 19 20 20 20 20 20 20 21 22 23 24